Home   Weather   Setúbal   Past weeks

Flag for Portugal Past Weather in Setúbal, Portugal — Yesterday and Last 2 Weeks

68 °F

Partly sunny.

Feels Like: 68 °F
Forecast: 61 / 66 °F
Wind: 13 mph from South

Location: Lisbon Portela Airport

Current Time: Oct 22, 2016 at 2:34:41 PM

Latest Report: Oct 22, 2016 at 2:00 PM

Visibility: N/A

Pressure: 29.65 "Hg

Humidity: 88%

Dew Point: 64 °F

Location of SetúbalLocation

Past Weather in Setúbal — Graph


Setúbal Temperature Yesterday

Maximum temperature yesterday: 66 °F (at 12:30 PM)
Minimum temperature yesterday: 59 °F (at 1:00 AM)
Average temperature yesterday: 63 °F

High & Low Weather Summary for the Past Weeks

High79 °F (Oct 18, 2:30 PM)100% (Oct 11, 10:00 PM)30.21 "Hg (Oct 11, 10:00 PM)
Low54 °F (Oct 10, 8:00 AM)44% (Oct 19, 2:30 PM)29.59 "Hg (Oct 12, 5:00 PM)
Average64 °F81%29.95 "Hg
* Reported Oct 7 1:00 PM — Oct 22 1:30 PM, Setúbal, Weather by CustomWeather, © 2016

Note: Actual official high and low records may vary slightly from our data, if they occured in-between our weather recording intervals... More about our weather records


Setúbal Weather History for the Previous 24 Hours

Scroll right to see more
Time TempWeatherWind HumidityBarometerVisibility
1:30 PM
Sat, Oct 22
68 °FLight rain. Partly sunny.9 mph88%29.65 "HgN/A
1:00 PM66 °FSprinkles. Broken clouds.6 mph94%29.68 "Hg6 mi
12:30 PM66 °FScattered showers. Broken clouds.7 mph94%29.68 "HgN/A
12:00 PM64 °FSprinkles. Broken clouds.6 mph94%29.71 "HgN/A
11:30 AM64 °FScattered showers. Broken clouds.6 mph94%29.71 "HgN/A
11:00 AM66 °FBroken clouds.5 mph94%29.71 "HgN/A
10:30 AM64 °FBroken clouds.5 mph94%29.71 "HgN/A
10:00 AM64 °FScattered showers. Broken clouds.2 mph94%29.71 "HgN/A
9:30 AM63 °FScattered showers. Broken clouds.5 mph100%29.71 "Hg3 mi
9:00 AM63 °FScattered clouds.2 mph100%29.71 "HgN/A
8:30 AM61 °FPassing clouds.3 mph100%29.71 "HgN/A
8:00 AM63 °FScattered clouds.2 mph94%29.71 "HgN/A
7:30 AM63 °FPassing clouds.5 mph100%29.71 "HgN/A
7:00 AM63 °FPassing clouds.6 mph100%29.71 "HgN/A
6:30 AM63 °FPassing clouds.8 mph100%29.71 "HgN/A
6:00 AM63 °FPassing clouds.8 mph100%29.68 "HgN/A
5:30 AM63 °FPassing clouds.8 mph100%29.71 "HgN/A
5:00 AM63 °FPassing clouds.6 mph100%29.71 "HgN/A
4:30 AM63 °FPassing clouds.No wind100%29.71 "HgN/A
4:00 AM63 °FPassing clouds.2 mph100%29.71 "Hg6 mi
3:30 AM63 °FPassing clouds.2 mph100%29.71 "Hg5 mi
3:00 AM63 °FPassing clouds.2 mph94%29.74 "Hg4 mi
2:30 AM63 °FLight rain. Passing clouds.3 mph94%29.74 "Hg4 mi
2:00 AM63 °FPartly cloudy.3 mph94%29.74 "Hg4 mi
1:00 AM63 °FRain. Passing clouds.6 mph94%29.77 "Hg4 mi
12:30 AM63 °FLight rain. Passing clouds.5 mph94%29.77 "Hg5 mi
12:00 AM63 °FLight rain. Passing clouds.6 mph94%29.77 "Hg5 mi
11:30 PM
Fri, Oct 21
63 °FLight rain. Passing clouds.6 mph94%29.80 "Hg6 mi
11:00 PM63 °FPassing clouds.7 mph94%29.80 "HgN/A
10:30 PM63 °FPassing clouds.2 mph94%29.80 "HgN/A
10:00 PM63 °FPassing clouds.3 mph94%29.80 "HgN/A
9:30 PM63 °FPassing clouds.5 mph94%29.80 "HgN/A
9:00 PM63 °FPassing clouds.3 mph94%29.80 "HgN/A
8:30 PM63 °FPassing clouds.2 mph94%29.83 "HgN/A
8:00 PM63 °FPassing clouds.2 mph94%29.83 "HgN/A
7:30 PM63 °FPartly cloudy.2 mph94%29.80 "Hg5 mi
7:00 PM63 °FScattered showers. Passing clouds.2 mph94%29.80 "Hg5 mi
6:30 PM63 °FScattered showers. Partly sunny.3 mph94%29.83 "Hg4 mi
6:00 PM63 °FDrizzle. Fog.8 mph94%29.83 "Hg2 mi
5:30 PM64 °FBroken clouds.10 mph83%29.83 "HgN/A
5:00 PM66 °FPartly sunny.7 mph78%29.83 "HgN/A
4:30 PM66 °FPartly sunny.9 mph78%29.83 "HgN/A
4:00 PM66 °FScattered clouds.9 mph78%29.83 "HgN/A
3:30 PM66 °FPartly sunny.6 mph78%29.83 "HgN/A
3:00 PM66 °FBroken clouds.7 mph83%29.83 "HgN/A
2:30 PM66 °FBroken clouds.8 mph78%29.83 "HgN/A
2:00 PM66 °FBroken clouds.8 mph78%29.83 "HgN/A
Weather by CustomWeather, © 2016

See weather overviewHow to use our weather pages